Storm Lake, IA

2:37 AM CDT on May 25, 2017 (GMT -0500)
Storm Lake Municipal

Weather History for KSLB - July, 2013

Change the Weather History Date:

Sunday, July 14, 2013

  Actual Average Record
Temperature  
Mean Temperature 75 °F -  
Max Temperature 84 °F 81 °F 91 °F (2006)
Min Temperature 66 °F 63 °F 53 °F (2014)
Cooling Degree Days 10    
Growing Degree Days 25 (Base 50)    
Moisture  
Dew Point 62 °F    
Average Humidity 67    
Maximum Humidity 88    
Minimum Humidity 42    
Precipitation  
Precipitation 0.00 in - - ()
Sea Level Pressure  
Sea Level Pressure 30.10 in    
Wind  
Wind Speed 11 mph (SSE)    
Max Wind Speed 16 mph    
Max Gust Speed 24 mph    
Visibility 10 miles    
Events Rain    
Averages and records for this station are not official NWS values.
T = Trace of Precipitation, MM = Missing Value Source: NWS Daily Summary

Daily Weather History Graph

Daily Weather History Graph

Search for Another Location

Airport or City:

Trip Planner

Search our weather history database for the weather conditions in past years. The results will help you decide how hot, cold, wet, or windy it might be!

Date:

Astronomy

Jul. 14, 2013 Rise Set
Actual Time 5:56 AM CDT 8:57 PM CDT
Civil Twilight 5:22 AM CDT 9:30 PM CDT
Nautical Twilight 4:39 AM CDT 10:13 PM CDT
Astronomical Twilight 3:48 AM CDT 11:04 PM CDT
Moon 12:23 PM CDT (7/14) 11:59 PM CDT (7/14)
Length of Visible Light 16h 08m
Length of Day
15h 01m
Waxing Crescent, 35% of the Moon is Illuminated
Jul 14
Waxing Crescent
Jul 15
First Quarter
Jul 22
Full
Jul 29
Last Quarter
Aug 6
New

Hourly Weather History & Observations

Time (CDT) Temp. Heat Index Dew Point Humidity Pressure Visibility Wind Dir Wind Speed Gust Speed Precip Events Conditions
12:15 AM 71.6 °F - 64.4 °F 78% 30.04 in 10.0 mi SSE 13.8 mph - N/A   Clear
12:35 AM 71.6 °F - 64.4 °F 78% 30.05 in 10.0 mi SE 12.7 mph 18.4 mph N/A   Clear
12:55 AM 71.6 °F - 64.4 °F 78% 30.06 in 10.0 mi SSE 11.5 mph - N/A   Mostly Cloudy
1:15 AM 69.8 °F - 64.4 °F 83% 30.06 in 9.0 mi SE 10.4 mph - N/A Rain Light Rain
1:35 AM 68.0 °F - 64.4 °F 88% 30.06 in 7.0 mi SSE 10.4 mph 17.3 mph N/A   Overcast
1:55 AM 68.0 °F - 64.4 °F 88% 30.06 in 10.0 mi SSE 8.1 mph - N/A   Light Drizzle
2:15 AM 68.0 °F - 64.4 °F 88% 30.06 in 10.0 mi SE 9.2 mph - N/A   Partly Cloudy
2:35 AM 68.0 °F - 62.6 °F 83% 30.05 in 10.0 mi SSE 9.2 mph - N/A   Clear
2:55 AM 68.0 °F - 62.6 °F 83% 30.05 in 10.0 mi SE 8.1 mph - N/A   Clear
3:15 AM 68.0 °F - 60.8 °F 78% 30.04 in 10.0 mi SE 10.4 mph 16.1 mph N/A   Clear
3:35 AM 68.0 °F - 60.8 °F 78% 30.04 in 10.0 mi SE 10.4 mph - N/A   Clear
3:55 AM 66.2 °F - 60.8 °F 83% 30.04 in 10.0 mi SE 11.5 mph - N/A   Clear
4:15 AM 66.2 °F - 60.8 °F 83% 30.04 in 10.0 mi SE 11.5 mph - N/A   Partly Cloudy
4:35 AM 68.0 °F - 60.8 °F 78% 30.04 in 10.0 mi SE 10.4 mph - N/A   Scattered Clouds
4:55 AM 68.0 °F - 60.8 °F 78% 30.05 in 10.0 mi SSE 11.5 mph - N/A   Mostly Cloudy
5:15 AM 68.0 °F - 60.8 °F 78% 30.06 in 10.0 mi SSE 12.7 mph - N/A   Mostly Cloudy
5:35 AM 68.0 °F - 60.8 °F 78% 30.07 in 10.0 mi SE 9.2 mph - N/A   Mostly Cloudy
5:55 AM 68.0 °F - 60.8 °F 78% 30.08 in 10.0 mi SE 11.5 mph - N/A   Mostly Cloudy
6:15 AM 68.0 °F - 62.6 °F 83% 30.08 in 10.0 mi SE 10.4 mph - N/A   Overcast
6:35 AM 68.0 °F - 62.6 °F 83% 30.08 in 10.0 mi SE 8.1 mph - N/A   Overcast
6:55 AM 68.0 °F - 62.6 °F 83% 30.08 in 10.0 mi SSE 9.2 mph - N/A   Overcast
7:15 AM 68.0 °F - 62.6 °F 83% 30.08 in 10.0 mi SSE 8.1 mph - N/A   Overcast
7:35 AM 68.0 °F - 62.6 °F 83% 30.09 in 10.0 mi SSE 8.1 mph - N/A   Overcast
7:55 AM 68.0 °F - 62.6 °F 83% 30.09 in 10.0 mi SSE 6.9 mph - N/A   Mostly Cloudy
8:15 AM 68.0 °F - 62.6 °F 83% 30.08 in 10.0 mi SSE 9.2 mph - N/A   Partly Cloudy
8:35 AM 69.8 °F - 62.6 °F 78% 30.09 in 10.0 mi SSE 6.9 mph 12.7 mph N/A   Mostly Cloudy
8:55 AM 73.4 °F - 62.6 °F 69% 30.10 in 10.0 mi SSE 15.0 mph - N/A   Scattered Clouds
9:15 AM 75.2 °F - 62.6 °F 65% 30.10 in 10.0 mi SSE 12.7 mph 19.6 mph N/A   Clear
9:35 AM 73.4 °F - 62.6 °F 69% 30.10 in 10.0 mi SSE 16.1 mph 24.2 mph N/A   Clear
9:55 AM 75.2 °F - 62.6 °F 65% 30.10 in 10.0 mi South 15.0 mph - N/A   Clear
10:15 AM 75.2 °F - 62.6 °F 65% 30.11 in 10.0 mi SSE 16.1 mph - N/A   Clear
10:35 AM 77.0 °F - 62.6 °F 61% 30.11 in - SSE 16.1 mph - N/A   Clear
10:55 AM 77.0 °F - 62.6 °F 61% 30.12 in 10.0 mi SSE 12.7 mph 20.7 mph N/A   Clear
11:15 AM 78.8 °F - 62.6 °F 57% 30.11 in 10.0 mi SSE 15.0 mph - N/A   Clear
11:35 AM 78.8 °F - 62.6 °F 57% 30.11 in 10.0 mi SE 13.8 mph - N/A   Clear
11:55 AM 78.8 °F - 62.6 °F 57% 30.11 in 10.0 mi SSE 12.7 mph 19.6 mph N/A   Clear
12:15 PM 78.8 °F - 60.8 °F 54% 30.11 in 10.0 mi SSE 15.0 mph 21.9 mph N/A   Clear
12:35 PM 80.6 °F 81.5 °F 60.8 °F 51% 30.11 in 10.0 mi SSE 13.8 mph - N/A   Clear
12:55 PM 80.6 °F 81.5 °F 60.8 °F 51% 30.11 in 10.0 mi South 11.5 mph 19.6 mph N/A   Clear
1:15 PM 80.6 °F 80.8 °F 57.2 °F 45% 30.12 in 10.0 mi SSE 13.8 mph - N/A   Clear
1:35 PM 82.4 °F 82.9 °F 60.8 °F 48% 30.12 in 10.0 mi SSE 9.2 mph 16.1 mph N/A   Clear
1:55 PM 82.4 °F 82.9 °F 60.8 °F 48% 30.12 in 10.0 mi SSE 12.7 mph - N/A   Clear
2:15 PM 82.4 °F 82.5 °F 59.0 °F 45% 30.12 in 10.0 mi South 13.8 mph - N/A   Clear
2:35 PM 82.4 °F 82.9 °F 60.8 °F 48% 30.11 in 10.0 mi SSE 9.2 mph 16.1 mph N/A   Clear
2:55 PM 82.4 °F 82.9 °F 60.8 °F 48% 30.11 in 10.0 mi SE 13.8 mph - N/A   Clear
3:15 PM 82.4 °F 82.9 °F 60.8 °F 48% 30.11 in 10.0 mi SSE 12.7 mph 20.7 mph N/A   Clear
3:35 PM 84.2 °F 84.4 °F 60.8 °F 45% 30.11 in 10.0 mi South 15.0 mph - N/A   Clear
3:55 PM 84.2 °F 83.8 °F 59.0 °F 42% 30.11 in 10.0 mi South 13.8 mph - N/A   Clear
4:15 PM 84.2 °F 84.4 °F 60.8 °F 45% 30.11 in 10.0 mi South 11.5 mph 18.4 mph N/A   Clear
4:35 PM 84.2 °F 84.4 °F 60.8 °F 45% 30.10 in 10.0 mi South 13.8 mph - N/A   Clear
4:55 PM 84.2 °F 84.4 °F 60.8 °F 45% 30.10 in 10.0 mi South 11.5 mph 18.4 mph N/A   Clear
5:15 PM 84.2 °F 84.4 °F 60.8 °F 45% 30.10 in 10.0 mi South 11.5 mph 19.6 mph N/A   Partly Cloudy
5:35 PM 82.4 °F 83.4 °F 62.6 °F 51% 30.10 in 10.0 mi SSE 9.2 mph 15.0 mph N/A   Scattered Clouds
5:55 PM 82.4 °F 83.9 °F 64.4 °F 54% 30.10 in 10.0 mi SE 10.4 mph - N/A   Mostly Cloudy
6:15 PM 82.4 °F 83.4 °F 62.6 °F 51% 30.10 in 10.0 mi SSE 10.4 mph - N/A   Mostly Cloudy
6:35 PM 82.4 °F 83.4 °F 62.6 °F 51% 30.10 in 10.0 mi SSE 9.2 mph - N/A   Partly Cloudy
6:55 PM 82.4 °F 83.4 °F 62.6 °F 51% 30.11 in 10.0 mi SSE 8.1 mph 15.0 mph N/A   Mostly Cloudy
7:15 PM 80.6 °F 81.8 °F 62.6 °F 54% 30.11 in 10.0 mi SE 8.1 mph 15.0 mph N/A   Mostly Cloudy
7:35 PM 80.6 °F 81.8 °F 62.6 °F 54% 30.11 in 10.0 mi SE 9.2 mph - N/A   Scattered Clouds
7:55 PM 78.8 °F - 64.4 °F 61% 30.12 in 10.0 mi SSE 5.8 mph - N/A   Partly Cloudy
8:15 PM 77.0 °F - 64.4 °F 65% 30.12 in 10.0 mi SSE 5.8 mph - N/A   Partly Cloudy
8:35 PM 75.2 °F - 64.4 °F 69% 30.13 in 10.0 mi SSE 6.9 mph - N/A   Mostly Cloudy
8:55 PM 75.2 °F - 64.4 °F 69% 30.14 in 10.0 mi SE 3.5 mph - N/A   Mostly Cloudy
9:15 PM 75.2 °F - 64.4 °F 69% 30.14 in 10.0 mi Calm Calm - N/A   Mostly Cloudy
9:35 PM 73.4 °F - 64.4 °F 73% 30.15 in 10.0 mi SE 5.8 mph - N/A   Scattered Clouds
9:55 PM 73.4 °F - 62.6 °F 69% 30.16 in 10.0 mi SE 5.8 mph - N/A   Mostly Cloudy
10:15 PM 71.6 °F - 62.6 °F 73% 30.17 in 10.0 mi SE 5.8 mph - N/A   Mostly Cloudy
10:35 PM 69.8 °F - 62.6 °F 78% 30.18 in 10.0 mi SSE 6.9 mph - N/A   Clear
10:55 PM 69.8 °F - 62.6 °F 78% 30.18 in 10.0 mi SE 4.6 mph - N/A   Clear
11:15 PM 69.8 °F - 62.6 °F 78% 30.19 in 10.0 mi SSE 5.8 mph - N/A   Clear
11:35 PM 69.8 °F - 62.6 °F 78% 30.19 in 10.0 mi SE 4.6 mph - N/A   Clear
11:55 PM 69.8 °F - 62.6 °F 78% 30.20 in 10.0 mi SE 4.6 mph - N/A   Partly Cloudy